COSMOS 2278 (23087 NORAD) Tracking and Keplerian Element Data

This shows tracking and keplerian element data for the satellite.

Feedback or suggestion? Click here.




ElementValue
Catalog23087
NameCOSMOS 2278
Epoch Orbit53350
Epoch Day12.42828022
Epoch Year2024
RAAN21.7874
Inclination71.0526
Eccentricity0.000823
Argument of Perigee165.704
Mean Anonmoly194.4317
Mean Motion14.14027815
Decay Rate2.01E-06
L11 23087U 94023A 24012.42828022 .00000201 00000+0 13021-3 0 9997
L22 23087 71.0526 21.7874 0008230 165.7040 194.4317 14.14027815533506



Live tracking and technical data element details for COSMOS 2278 (NORAD 23087). COSMOS 2278 can be tracked NOW for your location showing map with azimuth and elevation plus other details from your city location.







IsCatalogInMostPopularTable: catalog: 23087, numindb: 379
Update: records affected: 1



GetName: 23087 COSMOS 2278

Hit Count: updated at: Fri, 19 Apr 2024 12:20:59 GMT